RH
100 100 99 93 77 70 56 56 54 48 42 35 35 42 55 100 99 99 35 31 24 17 17 19 22 27 32 31 29 26 28 28 27 27 22 17 19 77 100 100 100 99 100
97 98 79 75 73 76 62 56 45 35 39 47 49 88 100 100 100 92 63 24 29 26 29 38 44 48 48 46 42 35 30 30 30 30 27 21 17 34 99 100 100 100 100
75 68 60 61 58 48 42 43 48 64 67 98 90 100 87 47 42 31 30 33 37 43 47 48 47 47 47 50 51 46 38 33 30 26 28 22 19 19 69 100 100 100 100
54 62 55 40 32 49 67 86 95 95 97 80 92 86 39 36 40 42 43 47 48 50 47 51 50 55 50 53 52 50 48 40 34 26 22 25 19 18 28 95 100 100 100
59 34 27 26 25 29 33 38 40 39 41 43 44 46 46 48 48 47 45 44 47 51 54 56 57 69 65 64 69 62 49 45 40 32 26 22 22 20 20 55 97 100 100
27 29 34 39 40 39 37 36 38 41 44 42 47 53 52 48 43 42 45 55 59 56 53 52 51 58 54 58 56 56 63 63 46 38 32 26 24 20 19 24 67 100 100
29 28 27 30 39 45 41 45 46 45 43 45 45 47 49 49 59 68 67 61 62 66 71 72 72 73 70 66 60 50 48 46 58 54 40 32 26 21 20 19 26 65 97
46 50 57 58 56 55 53 49 44 46 54 60 58 64 74 64 60 55 56 55 52 50 52 54 52 48 45 49 51 61 60 52 39 45 54 40 35 28 20 20 20 44 75
52 52 53 50 45 41 39 36 38 45 48 50 45 42 40 40 44 52 61 64 58 46 40 41 43 42 39 36 32 29 27 33 47 34 33 44 38 36 30 22 21 23 50
37 38 36 35 33 34 34 35 36 37 40 48 61 70 66 59 58 58 60 58 54 48 45 42 35 32 30 26 27 26 22 23 25 31 30 25 30 32 30 32 26 20 32
50 40 33 30 34 36 38 44 50 56 62 74 72 64 61 60 59 57 50 44 41 41 39 31 23 16 14 13 12 11 9 9 11 12 18 29 25 23 24 22 26 29 22
64 54 49 50 53 53 55 58 65 65 64 66 63 58 53 46 40 35 34 30 23 17 14 12 10 7 6 5 5 5 5 5 5 6 9 12 20 22 23 21 21 21 27
59 60 64 64 58 55 56 55 56 58 54 48 43 40 37 33 24 19 14 12 10 8 6 6 5 4 4 4 4 4 4 4 4 5 5 5 8 15 19 22 20 22 21
60 59 59 57 55 54 54 53 51 48 44 42 36 27 20 16 14 12 9 6 6 6 6 5 4 3 3 3 3 3 2 2 3 4 4 4 4 6 10 16 18 19 21
66 67 63 54 51 53 55 54 45 47 38 32 22 18 14 13 10 7 6 5 5 4 4 3 3 2 2 2 2 3 3 2 2 2 3 3 4 4 5 8 12 16 18
74 64 55 54 56 58 58 56 50 41 30 23 15 13 12 9 6 5 5 4 4 3 4 3 3 3 2 2 3 3 3 2 2 2 2 2 3 4 4 5 7 11 14
66 64 64 62 60 62 56 49 40 31 22 15 15 12 8 7 6 4 4 3 3 3 4 4 3 3 3 3 3 3 3 3 3 3 3 3 2 2 3 4 5 6 10
69 66 66 59 66 62 45 37 34 26 16 15 11 8 7 6 4 4 3 3 4 4 4 4 3 3 3 2 2 2 2 3 3 3 3 3 3 2 2 3 4 5 6
70 70 71 72 57 36 31 26 20 14 14 11 9 7 6 4 4 4 4 4 4 4 4 3 3 2 2 2 2 2 2 2 2 3 4 3 2 3 3 2 3 4 5
77 78 72 48 33 22 19 15 13 14 11 9 7 6 5 4 4 4 4 4 4 4 3 2 2 3 2 2 2 2 2 2 2 2 3 4 3 2 3 2 2 3 5
74 74 57 32 17 12 12 11 13 11 9 8 7 5 4 4 4 5 5 4 4 3 3 3 3 3 3 2 2 2 2 2 2 2 2 3 3 2 2 2 2 2 3
71 52 27 14 10 11 11 12 11 10 8 7 6 4 4 5 5 5 5 4 3 3 3 3 3 3 3 3 3 2 2 2 2 2 2 3 3 3 3 3 2 3 3
44 28 28 16 12 13 12 11 10 8 7 7 5 4 5 5 5 5 5 4 3 3 4 4 3 3 3 3 3 3 2 2 2 2 3 2 3 3 2 3 3 3 3
28 25 17 13 14 13 10 10 8 7 7 6 5 5 6 5 5 5 4 4 4 4 4 4 3 3 3 3 3 3 3 3 2 2 3 2 3 3 3 3 3 3 3
29 17 12 12 11 10 9 9 7 7 7 5 5 6 5 5 5 5 4 4 4 4 4 3 3 3 4 4 4 4 4 3 2 2 3 3 3 3 3 3 3 3 3
10 11 12 13 11 9 9 8 8 8 6 5 5 6 5 5 4 4 4 4 4 4 4 3 3 3 4 4 4 4 3 3 3 2 3 3 3 3 3 3 3 3 3
Wind_Speed
80 82 82 83 84 82 79 71 67 64 62 62 63 61 58 65 63 73 64 68 67 57 56 58 55 55 53 54 52 51 53 53 50 46 44 41 38 38 63 66 68 71 64
86 82 85 82 78 72 73 68 66 67 65 66 67 67 68 77 82 84 84 71 75 71 68 68 66 63 56 53 54 54 52 55 56 52 49 46 45 42 58 72 73 71 70
80 82 78 71 70 71 70 70 69 72 69 80 79 78 82 79 82 81 82 80 76 76 74 72 69 67 64 59 58 59 58 56 57 57 55 50 51 48 59 73 80 80 72
80 74 73 71 69 69 71 70 72 77 83 83 85 88 84 83 80 79 79 80 77 79 75 71 70 70 67 64 63 63 64 64 62 61 58 56 54 55 51 73 86 88 81
68 68 69 71 72 71 71 72 73 73 74 78 77 78 81 81 82 82 82 81 79 76 75 73 67 69 73 68 68 69 68 68 70 68 66 63 60 60 55 59 90 91 88
66 67 66 68 69 70 71 73 74 77 79 78 80 81 85 85 85 84 80 80 79 81 79 80 82 84 82 82 82 82 77 75 75 74 75 74 69 66 66 64 74 96 96
65 67 68 70 74 79 79 81 82 85 86 87 84 83 86 87 84 82 82 84 88 90 90 91 92 94 94 96 95 94 95 89 84 82 84 83 81 77 73 73 72 76 97
71 74 77 80 82 84 86 87 87 85 86 84 84 80 78 83 89 90 92 94 99 100 103 105 109 108 109 106 109 109 107 105 102 98 94 91 92 90 83 82 78 76 83
78 81 83 85 87 89 88 86 82 79 78 78 83 85 86 89 92 99 104 108 112 115 116 118 120 119 119 118 117 116 113 114 118 117 110 105 101 100 98 92 88 85 87
71 73 74 74 74 73 73 73 76 78 83 87 89 95 97 100 103 104 111 116 121 126 127 127 124 121 120 117 117 117 114 112 115 122 124 121 115 109 106 105 99 96 90
66 66 67 68 70 71 73 77 81 87 88 93 99 102 107 112 115 117 116 122 125 128 128 126 123 121 118 116 116 115 110 105 107 108 114 125 122 122 115 109 107 105 103
67 68 68 69 72 75 79 82 86 90 94 101 107 112 116 120 121 121 120 116 115 118 119 119 116 111 108 103 101 99 97 98 102 102 105 111 119 122 122 120 113 109 109
66 67 69 73 77 80 83 88 93 100 106 111 115 116 117 116 114 111 111 109 106 108 107 104 99 94 90 88 88 87 84 84 86 89 97 103 109 116 119 122 123 121 113
69 71 75 80 83 87 91 98 104 109 111 112 112 110 106 107 107 104 102 99 97 97 96 94 91 83 78 78 79 80 78 77 76 80 88 93 98 107 114 118 122 123 123
74 77 81 84 90 95 100 106 109 108 109 109 106 105 104 100 100 99 96 93 87 84 85 86 79 74 70 69 70 74 73 74 72 77 80 85 90 97 107 113 118 121 124
81 84 89 93 97 101 106 108 109 111 108 104 104 103 98 97 96 94 90 84 79 71 67 77 75 70 67 61 63 67 67 68 69 70 76 79 83 89 97 107 117 119 123
88 92 97 102 106 108 111 110 110 108 104 104 105 98 96 93 90 86 81 75 70 67 61 71 71 66 63 60 59 59 62 64 65 67 71 74 78 81 88 98 109 118 122
96 101 105 108 109 113 112 110 107 106 107 106 98 95 91 86 82 77 72 69 67 66 60 59 69 62 59 58 58 56 57 60 61 64 69 70 73 76 81 89 98 110 120
103 106 109 111 110 110 108 107 106 107 104 97 95 89 84 79 75 71 69 66 64 62 60 57 61 58 57 54 54 54 55 55 58 59 64 66 68 71 78 82 88 99 111
108 112 113 110 108 107 109 107 107 102 97 94 89 82 76 73 69 68 66 63 60 58 56 54 52 53 50 49 50 49 51 51 53 54 58 62 66 67 73 77 82 89 100
111 113 109 108 108 107 108 106 100 95 93 86 80 74 70 68 67 65 62 59 57 55 52 50 49 47 45 45 46 47 48 48 50 49 52 60 64 63 70 74 76 83 93
110 105 106 109 109 110 106 99 95 92 86 79 73 70 67 66 65 61 59 56 52 50 49 47 44 43 41 40 41 44 45 48 47 47 47 56 60 61 65 70 74 79 85
101 105 109 110 109 107 102 95 91 86 79 73 70 67 65 64 61 56 54 52 50 48 47 45 43 40 40 38 39 38 39 43 45 44 45 52 57 61 63 68 73 75 80
104 107 107 106 103 98 93 89 85 80 73 70 68 66 63 61 57 53 51 50 46 44 43 42 41 38 37 35 35 35 37 38 40 43 45 47 53 58 57 64 69 73 77
108 106 101 98 98 92 91 86 81 76 71 68 65 63 60 56 53 50 49 46 43 42 40 40 37 35 33 30 30 31 32 34 37 40 43 43 49 56 56 61 65 70 75
103 96 98 101 98 93 90 83 78 73 69 66 63 60 58 52 49 48 46 43 40 38 38 36 34 32 30 27 26 27 28 29 32 36 40 41 44 52 55 57 60 66 70
Wind_Direction
286 286 287 292 292 294 294 292 290 286 285 290 292 293 299 300 297 295 291 293 291 284 282 283 281 280 277 273 272 266 265 262 260 260 259 253 240 221 211 206 212 213 214
284 287 288 290 293 292 292 291 290 291 291 294 294 299 293 291 287 288 288 288 289 290 289 287 286 283 275 270 266 261 260 259 258 256 250 246 245 231 214 208 208 211 211
282 283 286 286 289 289 293 295 297 298 297 296 294 283 285 287 288 287 287 288 288 287 287 287 284 281 277 270 263 260 259 255 255 254 248 240 239 236 220 212 209 208 214
287 289 290 291 291 290 291 287 285 278 280 280 280 284 285 287 287 286 286 287 287 286 284 281 281 279 276 273 266 259 255 254 252 251 245 242 238 238 228 218 211 209 209
288 289 290 290 290 290 290 290 289 288 287 288 289 288 288 289 289 289 289 288 286 283 281 281 274 271 273 270 267 264 257 252 248 246 243 242 241 239 237 223 213 211 210
287 287 288 289 289 288 289 289 291 292 292 291 291 291 291 290 289 287 287 285 283 281 277 275 275 275 269 268 267 263 259 254 249 246 242 240 239 237 235 231 221 217 218
291 292 292 294 295 296 296 295 295 294 292 291 291 291 290 291 289 287 287 286 284 283 280 278 276 274 273 271 266 263 261 256 251 245 241 240 238 236 233 232 230 225 220
294 293 293 293 293 292 292 292 291 291 290 289 288 286 284 286 287 286 285 282 280 278 277 276 274 271 268 265 263 262 263 260 254 247 242 237 235 237 233 230 229 227 221
291 290 289 288 288 288 287 288 288 287 287 288 290 289 287 284 283 286 287 285 283 281 279 277 276 276 273 270 267 264 260 256 255 254 248 241 236 233 234 233 229 227 224
292 292 291 291 291 291 292 293 294 294 294 294 294 293 291 289 285 281 280 279 279 280 280 281 281 280 276 273 269 266 263 259 256 252 252 249 242 237 233 231 232 228 224
301 300 299 298 299 300 298 298 298 298 298 295 292 290 289 288 288 286 284 284 284 284 282 280 279 278 276 274 272 270 268 264 258 252 248 248 246 243 239 235 232 231 227
307 305 305 304 302 300 300 299 298 297 294 292 292 291 290 289 288 288 288 286 284 282 281 280 280 279 277 276 273 270 266 262 258 255 251 246 244 242 239 237 235 232 231
307 304 303 302 300 300 298 296 296 296 293 292 292 292 292 293 294 292 289 286 285 284 284 283 281 279 278 275 273 269 266 260 255 253 249 244 241 240 238 236 234 234 232
307 304 303 302 299 298 299 298 296 296 296 295 295 297 297 296 295 292 291 290 290 289 287 284 282 280 277 274 271 268 265 261 256 251 246 244 239 236 235 232 231 230 231
307 305 303 302 302 302 300 301 299 301 301 302 302 303 302 299 298 295 294 293 291 288 287 284 281 280 276 272 269 266 262 259 254 250 247 242 240 236 232 231 229 226 227
308 307 306 305 305 306 304 305 306 306 306 306 306 306 304 301 299 297 296 294 292 289 286 285 284 281 277 271 265 264 261 257 253 249 246 243 239 236 232 229 228 225 223
310 309 309 308 309 309 308 308 308 308 310 310 309 307 305 302 300 298 297 295 293 291 288 285 283 283 280 276 269 262 260 257 253 249 246 243 240 236 233 230 228 225 222
311 311 311 311 312 311 310 310 311 311 311 311 310 308 304 303 301 300 298 297 296 293 290 284 284 283 279 275 272 266 258 253 250 247 245 241 238 235 233 230 227 226 223
312 313 314 313 312 311 311 312 312 312 313 312 310 307 306 304 303 302 301 300 297 294 292 288 285 283 279 276 271 266 261 254 248 245 245 241 238 234 233 231 227 225 223
313 314 313 313 313 314 313 313 313 315 314 312 310 308 307 306 305 304 302 300 297 295 292 289 286 285 281 276 272 267 263 257 249 241 241 241 239 233 232 230 227 225 223
314 313 314 313 313 314 311 313 316 315 313 312 309 309 309 309 307 305 302 301 299 297 294 293 290 288 284 277 272 266 263 258 253 245 236 237 238 232 231 230 227 224 222
314 313 314 315 315 313 314 317 317 315 314 312 312 311 311 310 308 307 304 303 301 299 297 295 294 291 286 280 273 265 259 255 252 247 239 234 236 232 228 229 227 224 223
314 316 315 314 314 315 317 318 317 316 315 315 315 314 313 311 309 307 305 305 304 301 298 297 296 293 288 282 276 268 259 253 250 246 240 233 234 232 227 226 226 224 222
315 314 314 314 314 315 317 319 318 317 317 317 316 315 314 311 310 309 307 306 305 302 299 298 298 293 288 282 274 267 260 253 246 242 240 234 231 233 230 227 226 224 222
316 314 313 315 317 320 321 320 319 318 318 318 316 315 313 312 311 310 311 308 306 304 301 300 298 296 292 283 273 265 258 252 243 238 239 235 229 230 229 226 225 224 223
311 316 318 318 318 321 321 321 320 320 319 317 317 315 313 312 311 312 311 309 308 305 302 301 301 298 292 283 273 263 255 248 242 237 237 235 230 229 230 231 226 224 223